• In Hungary
  • List of Countries
  • For 7 days
  • Water Temperature
  • Satellite Maps
  • Weather Map
  • News
  • Weather Widgets
  • user-avatar
    Login

    Hourly Weather Pomorie

    Today, 21 October, Saturday

    Time Temperature Precipitation Wind Pressure Humidity
    00:00 +19°C° 0 mm 1 mps 763 mmHg 49%
    01:00 +19°C° 0 mm 1 mps 763 mmHg 50%
    02:00 +18°C° 0 mm 1 mps 762 mmHg 53%
    03:00 +18°C° 0 mm 1 mps 762 mmHg 54%
    04:00 +18°C° 0 mm 1 mps 762 mmHg 55%
    05:00 +16°C° 0 mm 1 mps 762 mmHg 56%
    06:00 +17°C° 0 mm 2 mps 762 mmHg 54%
    07:00 +18°C° 0 mm 2 mps 763 mmHg 53%
    08:00 +19°C° 0 mm 2 mps 762 mmHg 50%
    09:00 +21°C° 0 mm 2 mps 762 mmHg 45%
    10:00 +24°C° 0 mm 2 mps 762 mmHg 39%
    11:00 +26°C° 0 mm 1 mps 762 mmHg 34%
    12:00 +27°C° 0 mm 1 mps 762 mmHg 31%
    13:00 +27°C° 0 mm 1 mps 762 mmHg 29%
    14:00 +28°C° 0 mm 1 mps 761 mmHg 26%
    15:00 +27°C° 0 mm 1 mps 761 mmHg 30%
    16:00 +25°C° 0 mm 2 mps 761 mmHg 34%
    17:00 +24°C° 0 mm 2 mps 761 mmHg 38%
    18:00 +23°C° 0 mm 2 mps 761 mmHg 40%
    19:00 +21°C° 0 mm 2 mps 761 mmHg 43%
    20:00 +20°C° 0 mm 2 mps 761 mmHg 45%
    21:00 +19°C° 0 mm 2 mps 761 mmHg 45%
    22:00 +19°C° 0 mm 2 mps 760 mmHg 45%
    23:00 +18°C° 0 mm 2 mps 760 mmHg 45%

    Tomorrow, 22 October, Sunday

    Time Temperature Precipitation Wind Pressure Humidity
    00:00 +18°C° 0 mm 2 mps 760 mmHg 46%
    01:00 +18°C° 0 mm 2 mps 760 mmHg 47%
    02:00 +18°C° 0 mm 2 mps 760 mmHg 47%
    03:00 +17°C° 0 mm 2 mps 760 mmHg 49%
    04:00 +17°C° 0 mm 3 mps 759 mmHg 51%
    05:00 +17°C° 0 mm 3 mps 759 mmHg 53%
    06:00 +17°C° 0 mm 3 mps 759 mmHg 53%
    07:00 +18°C° 0 mm 4 mps 760 mmHg 53%
    08:00 +18°C° 0 mm 4 mps 760 mmHg 54%
    09:00 +19°C° 0 mm 4 mps 760 mmHg 50%
    10:00 +21°C° 0 mm 4 mps 761 mmHg 46%
    11:00 +22°C° 0 mm 4 mps 761 mmHg 42%
    12:00 +23°C° 0 mm 4 mps 761 mmHg 41%
    13:00 +23°C° 0 mm 4 mps 761 mmHg 40%
    14:00 +24°C° 0 mm 3 mps 761 mmHg 39%
    15:00 +22°C° 0 mm 3 mps 761 mmHg 44%
    16:00 +21°C° 0 mm 3 mps 761 mmHg 49%
    17:00 +20°C° 0 mm 3 mps 761 mmHg 55%
    18:00 +18°C° 0 mm 3 mps 761 mmHg 61%
    19:00 +17°C° 0 mm 3 mps 761 mmHg 68%
    20:00 +16°C° 0 mm 3 mps 761 mmHg 75%
    21:00 +15°C° 0 mm 4 mps 761 mmHg 77%
    22:00 +15°C° 0 mm 4 mps 761 mmHg 80%
    23:00 +14°C° 0 mm 4 mps 761 mmHg 83%

    Day after tomorrow, 23 October, Monday

    Time Temperature Precipitation Wind Pressure Humidity
    00:00 +14°C° 0 mm 4 mps 761 mmHg 85%
    01:00 +14°C° 0 mm 4 mps 761 mmHg 87%
    02:00 +14°C° 0 mm 4 mps 761 mmHg 89%
    03:00 +14°C° 0 mm 4 mps 760 mmHg 91%
    04:00 +14°C° 0 mm 4 mps 760 mmHg 92%
    05:00 +13°C° 0 mm 4 mps 759 mmHg 93%
    06:00 +14°C° 0 mm 4 mps 759 mmHg 90%
    07:00 +15°C° 0 mm 5 mps 759 mmHg 87%
    08:00 +15°C° 0 mm 5 mps 759 mmHg 84%
    09:00 +16°C° 0 mm 5 mps 758 mmHg 79%
    10:00 +17°C° 0 mm 5 mps 758 mmHg 74%
    11:00 +19°C° 0 mm 6 mps 758 mmHg 68%
    12:00 +20°C° 0 mm 6 mps 757 mmHg 67%
    13:00 +20°C° 0 mm 6 mps 756 mmHg 67%
    14:00 +20°C° 0 mm 6 mps 756 mmHg 66%
    15:00 +19°C° 0 mm 6 mps 755 mmHg 70%
    16:00 +19°C° 0 mm 6 mps 755 mmHg 74%
    17:00 +17°C° 0 mm 6 mps 755 mmHg 78%
    18:00 +17°C° 0 mm 6 mps 755 mmHg 81%
    19:00 +16°C° 0 mm 5 mps 755 mmHg 84%
    20:00 +16°C° 0 mm 5 mps 754 mmHg 86%
    21:00 +16°C° 0 mm 5 mps 754 mmHg 88%
    22:00 +16°C° 0 mm 6 mps 754 mmHg 89%
    23:00 +16°C° 0 mm 6 mps 754 mmHg 90%

    24 October, Tuesday

    Time Temperature Precipitation Wind Pressure Humidity
    00:00 +16°C° 0 mm 6 mps 754 mmHg 89%
    01:00 +16°C° 0 mm 6 mps 754 mmHg 89%
    02:00 +16°C° 0 mm 6 mps 753 mmHg 89%
    03:00 +16°C° 0.4 mm 6 mps 753 mmHg 89%
    04:00 +16°C° 0.4 mm 6 mps 753 mmHg 89%
    05:00 +16°C° 0.4 mm 6 mps 753 mmHg 89%
    06:00 +16°C° 1.5 mm 6 mps 753 mmHg 87%
    07:00 +16°C° 1.5 mm 6 mps 753 mmHg 85%
    08:00 +16°C° 1.5 mm 6 mps 753 mmHg 83%
    09:00 +17°C° 0.4 mm 6 mps 754 mmHg 77%
    10:00 +19°C° 0.4 mm 6 mps 754 mmHg 72%
    11:00 +20°C° 0.4 mm 7 mps 754 mmHg 67%
    12:00 +21°C° 0.3 mm 7 mps 754 mmHg 64%
    13:00 +21°C° 0.3 mm 7 mps 754 mmHg 61%
    14:00 +22°C° 0.3 mm 7 mps 754 mmHg 59%
    15:00 +21°C° 0.4 mm 8 mps 754 mmHg 66%
    16:00 +20°C° 0.4 mm 8 mps 754 mmHg 72%
    17:00 +18°C° 0.4 mm 8 mps 755 mmHg 79%
    18:00 +17°C° 0.5 mm 8 mps 755 mmHg 81%
    19:00 +17°C° 0.5 mm 8 mps 756 mmHg 83%
    20:00 +17°C° 0.5 mm 9 mps 756 mmHg 85%
    21:00 +17°C° 1.4 mm 9 mps 756 mmHg 86%
    22:00 +16°C° 1.4 mm 10 mps 757 mmHg 87%
    23:00 +16°C° 1.4 mm 10 mps 757 mmHg 87%

    25 October, Wednesday

    Time Temperature Precipitation Wind Pressure Humidity
    00:00 +16°C° 0.6 mm 10 mps 757 mmHg 87%
    01:00 +14°C° 0.6 mm 10 mps 757 mmHg 87%
    02:00 +14°C° 0.6 mm 11 mps 757 mmHg 86%
    03:00 +14°C° 0.5 mm 11 mps 757 mmHg 86%
    04:00 +13°C° 0.5 mm 11 mps 758 mmHg 85%
    05:00 +13°C° 0.5 mm 11 mps 758 mmHg 84%
    06:00 +12°C° 0.5 mm 11 mps 758 mmHg 84%
    07:00 +12°C° 0.5 mm 12 mps 759 mmHg 84%
    08:00 +10°C° 0.5 mm 12 mps 759 mmHg 83%
    09:00 +9°C° 0.6 mm 12 mps 760 mmHg 82%
    10:00 +9°C° 0.6 mm 12 mps 760 mmHg 80%
    11:00 +8°C° 0.6 mm 12 mps 761 mmHg 78%
    12:00 +7°C° 0.9 mm 13 mps 761 mmHg 79%
    13:00 +5°C° 0.9 mm 13 mps 761 mmHg 79%
    14:00 +4°C° 0.9 mm 13 mps 762 mmHg 79%
    15:00 +4°C° 2.3 mm 12 mps 762 mmHg 80%
    16:00 +3°C° 2.3 mm 11 mps 763 mmHg 82%
    17:00 +3°C° 2.3 mm 10 mps 763 mmHg 83%
    18:00 +3°C° 2 mm 10 mps 764 mmHg 83%
    19:00 +3°C° 2 mm 11 mps 765 mmHg 83%
    20:00 +3°C° 2 mm 11 mps 765 mmHg 84%
    21:00 +3°C° 0.4 mm 11 mps 766 mmHg 83%
    22:00 +2°C° 0.4 mm 10 mps 766 mmHg 83%
    23:00 +2°C° 0.4 mm 10 mps 766 mmHg 82%

    26 October, Thursday

    Time Temperature Precipitation Wind Pressure Humidity
    00:00 +2°C° 0.2 mm 10 mps 766 mmHg 82%
    01:00 +2°C° 0.2 mm 10 mps 767 mmHg 81%
    02:00 +2°C° 0.2 mm 10 mps 767 mmHg 81%
    03:00 +2°C° 0 mm 10 mps 767 mmHg 81%
    04:00 +2°C° 0 mm 10 mps 768 mmHg 80%
    05:00 +1°C° 0 mm 9 mps 768 mmHg 79%
    06:00 +1°C° 0 mm 9 mps 769 mmHg 78%
    07:00 +1°C° 0 mm 9 mps 769 mmHg 76%
    08:00 +1°C° 0 mm 9 mps 770 mmHg 75%
    09:00 +2°C° 0 mm 9 mps 770 mmHg 71%
    10:00 +3°C° 0 mm 9 mps 770 mmHg 67%
    11:00 +5°C° 0 mm 9 mps 771 mmHg 64%
    12:00 +6°C° 0 mm 8 mps 771 mmHg 61%
    13:00 +6°C° 0 mm 8 mps 771 mmHg 58%
    14:00 +7°C° 0 mm 8 mps 770 mmHg 55%
    15:00 +6°C° 0 mm 7 mps 771 mmHg 57%
    16:00 +6°C° 0 mm 7 mps 771 mmHg 58%
    17:00 +5°C° 0 mm 6 mps 771 mmHg 59%
    18:00 +5°C° 0 mm 6 mps 771 mmHg 61%
    19:00 +4°C° 0 mm 6 mps 771 mmHg 62%
    20:00 +4°C° 0 mm 6 mps 772 mmHg 63%
    21:00 +3°C° 0 mm 5 mps 772 mmHg 64%
    22:00 +3°C° 0 mm 5 mps 772 mmHg 64%
    23:00 +3°C° 0 mm 5 mps 772 mmHg 65%
    Show more